Lapse_Rate
7.1 7.3 7.6 7.0 7.2 7.4 7.5 7.5 7.5 7.3 7.1 6.9 6.9 6.9 7.0 7.1 7.3 7.4 7.4 7.3 7.1 7.0
6.7 6.3 6.5 6.8 6.7 6.2 6.7 7.7 7.7 7.7 7.5 7.2 7.2 7.0 7.0 7.0 7.0 7.2 7.1 7.2 7.4 7.1
6.1 6.1 6.7 6.2 6.7 6.9 6.2 6.8 7.7 7.9 7.9 7.8 7.7 7.4 7.3 7.1 7.2 7.0 7.0 7.1 7.1 7.0
4.9 5.7 6.2 6.4 6.7 6.2 6.2 6.5 6.9 6.7 7.5 7.8 7.8 7.7 7.7 7.7 7.4 7.3 7.4 7.4 7.3 7.1
4.7 4.6 4.9 5.8 6.1 6.5 5.9 6.6 6.5 5.9 6.5 6.9 7.1 7.7 7.9 7.7 7.8 7.6 7.5 7.6 7.8 7.6
6.1 5.5 4.6 4.3 4.8 5.5 6.3 6.6 6.8 6.9 6.4 6.6 7.0 6.6 7.5 7.6 7.5 7.7 7.7 7.3 7.4 7.8
5.9 5.7 5.5 4.9 4.2 4.4 4.3 5.0 6.4 6.8 6.8 6.9 6.8 6.9 7.2 7.2 6.9 6.7 6.8 6.8 6.9 6.9
6.7 4.6 5.5 5.0 5.0 4.6 4.5 4.5 4.7 5.1 5.5 6.0 6.5 6.8 6.9 6.9 6.8 6.5 6.6 6.5 6.4 5.8
6.2 6.1 5.0 5.3 5.8 5.3 5.0 4.6 4.6 4.5 4.8 5.0 5.4 5.6 6.0 6.2 6.5 6.6 6.6 6.5 7.4 5.5
4.7 4.9 4.9 5.5 5.4 5.0 5.5 5.3 5.0 4.7 4.5 4.7 4.9 4.8 4.9 5.1 5.4 5.6 6.2 6.2 6.5 6.1
5.0 5.3 5.2 5.1 5.0 5.6 5.9 5.8 6.1 4.8 4.2 4.7 4.4 4.6 4.7 4.7 4.5 4.8 5.0 5.1 5.3 6.7
5.4 5.8 6.4 5.4 5.0 5.3 5.7 6.1 6.0 6.3 6.5 5.2 4.7 4.6 4.5 4.5 4.5 4.5 4.7 5.0 5.3 5.6
5.9 6.0 6.0 6.4 6.1 5.7 6.0 6.0 6.5 6.7 6.2 6.1 6.4 5.5 5.6 4.8 4.6 4.5 4.5 4.9 5.1 4.9
5.7 5.9 6.0 6.1 6.4 6.4 6.5 6.8 6.6 6.7 6.8 6.5 6.0 6.0 6.2 5.9 5.6 4.9 5.1 5.1 5.2 5.1
Wind_Speed
25 15 13 14 14 13 13 14 15 15 17 20 19 17 17 14 14 16 15 20 16 14
18 19 19 18 19 14 15 13 16 16 17 19 19 20 19 15 17 17 17 16 17 15
16 16 15 16 19 17 19 19 13 14 17 19 19 19 19 16 18 17 14 14 18 16
14 15 15 15 16 17 15 18 18 14 14 16 17 18 17 18 19 18 16 17 16 18
14 15 15 15 17 17 16 17 16 16 15 10 15 14 16 18 17 17 16 17 14 14
16 16 16 15 16 16 16 17 17 17 17 16 11 11 15 17 19 19 19 16 14 13
14 16 15 15 15 16 15 15 17 17 15 17 18 9 8 6 9 11 12 14 12 12
12 14 17 16 17 16 15 16 15 15 15 13 13 9 12 15 11 12 14 14 14 11
16 15 12 15 17 17 17 15 16 15 14 19 12 10 11 12 13 14 11 16 10 16
16 16 14 13 15 18 18 16 17 18 17 18 17 12 14 13 14 12 11 9 6 9
16 18 17 16 14 14 14 16 16 15 17 18 16 13 14 17 15 14 12 11 11 6
19 20 19 20 17 14 11 13 16 16 19 19 19 19 13 15 17 14 15 13 11 8
20 20 20 20 20 17 16 14 12 16 18 21 20 21 16 15 13 15 10 13 12 4
20 20 19 18 16 18 18 15 16 17 15 16 17 20 19 10 13 13 12 8 8 5
Wind_Direction
16 1 333 275 256 264 252 247 233 232 226 227 228 229 227 225 225 224 226 227 232 238
2 5 4 359 14 330 267 251 246 235 232 232 230 225 221 222 223 221 219 224 224 232
1 2 357 352 355 4 345 339 275 243 231 234 231 233 226 224 225 226 224 224 223 225
352 356 357 2 346 354 343 337 350 312 248 233 233 233 227 229 228 221 224 229 233 233
347 354 356 347 345 356 341 337 343 336 343 305 237 231 225 231 222 223 212 215 216 220
349 352 352 345 340 330 339 339 344 344 349 348 314 245 219 230 228 218 218 213 205 209
348 349 343 338 338 337 334 334 342 345 337 346 335 306 302 296 247 218 226 218 209 208
352 317 348 334 335 331 339 335 337 332 337 335 335 7 1 347 294 245 239 236 230 235
338 347 308 330 334 328 336 333 337 331 333 331 329 353 353 347 333 306 276 244 246 247
335 324 330 331 323 322 326 329 337 328 324 318 316 344 341 356 328 313 312 305 282 264
333 330 331 327 322 315 318 306 335 317 309 317 308 331 340 328 318 316 309 303 296 319
334 332 331 326 322 317 303 303 299 317 310 307 305 323 317 323 318 313 306 305 304 297
332 331 328 323 320 319 314 306 299 292 298 297 299 315 319 319 306 298 297 297 284 290
329 328 323 320 319 316 313 306 300 291 287 295 304 297 303 290 299 298 296 287 287 283